Notices

What's New in latest Release from April 7th, 2021:

- Updated Glossary, including Speed of Maximum Gust, and Total Hourly Precipitation

- Updated national and regional climate services offices contacts and prices information

- Addition of station inventory lists for 1981-2010, 1971-2000, and 1961-1990 Normals.

If you haven't already, please take our survey and provide feedback about our website: https://eccc.sondage-survey.ca/f/LanguageSelection.aspx?s=442ca660-fcf1-47c0-95a9-59707d6fd709

Hourly Data Report for March 01, 2021

NANAIMO A
BRITISH COLUMBIA
Current Station Operator: NAVCAN

49°03'16.000" N
123°52'12.000" W
28.00 m
1025365
YCD

Download Data

Hourly Data (March 2021)
Hourly Data Report for March 1, 2021
TIME
LST
Temp Definition
°C
Dew Point Definition
°C
Rel Hum Definition
%
Precip. Amount Definition
mm

Wind Dir Definition
10's deg

Wind Spd Definition
km/h
Visibility Definition
km
Stn Press Definition
kPa
Hmdx Definition


Wind Chill Definition


Weather Definition


00:00 6.8 5.8 94 LegendMM 17 4 LegendMM 101.53     LegendNANA
01:00 7.0 5.9 93 LegendMM 14 13 LegendMM 101.50     LegendNANA
02:00 7.2 5.8 91 LegendMM 13 9 LegendMM 101.44     LegendNANA
03:00 7.5 5.1 85 LegendMM 14 14 LegendMM 101.38     LegendNANA
04:00 7.4 5.3 86 LegendMM 16 18 LegendMM 101.36     LegendNANA
05:00 7.7 5.0 83 LegendMM 15 18 LegendMM 101.36     LegendNANA
06:00 7.1 5.0 87 LegendMM 16 12 LegendMM 101.37     LegendNANA
07:00 6.6 5.3 91 LegendMM 18 8 LegendMM 101.39     LegendNANA
08:00 6.3 4.8 90 LegendMM 22 4 LegendMM 101.39     LegendNANA
09:00 7.1 5.4 89 LegendMM 7 9 LegendMM 101.45     LegendNANA
10:00 7.7 6.0 89 LegendMM 17 10 LegendMM 101.45     LegendNANA
11:00 9.8 6.3 79 LegendMM 7 8 LegendMM 101.43     LegendNANA
12:00 11.2 6.1 71 LegendMM 13 11 LegendMM 101.41     LegendNANA
13:00 9.9 5.4 73 LegendMM 8 17 LegendMM 101.38     LegendNANA
14:00 10.0 4.9 70 LegendMM 13 13 LegendMM 101.37     LegendNANA
15:00 11.8 5.2 64 LegendMM 15 21 LegendMM 101.34     LegendNANA
16:00 12.2 3.2 54 LegendMM 21 17 LegendMM 101.36     LegendNANA
17:00 11.4 3.0 56 LegendMM 20 13 LegendMM 101.34     LegendNANA
18:00 9.4 3.3 65 LegendMM 26 8 LegendMM 101.37     LegendNANA
19:00 7.0 3.5 78 LegendMM 14 3 LegendMM 101.38     LegendNANA
20:00 5.0 3.4 89 LegendMM 23 5 LegendMM 101.42     LegendNANA
21:00 4.2 1.1 81 LegendMM 27 5 LegendMM 101.50     LegendNANA
22:00 4.4 0.9 78 LegendMM 33 10 LegendMM 101.50     LegendNANA
23:00 1.8 0.5 91 LegendMM 28 5 LegendMM 101.51     LegendNANA

Notes on Data Quality.

Legend

  • E = Estimated
  • M = Missing
  • NA = Not Available*
  • [empty] = Indicates an unobserved value
Date modified: